Year,Month,Day,Hour,Minute,Value (Times are PST for temperature in C)
2007,04,20,00,00,4.90
2007,04,20,00,01,4.90
2007,04,20,00,02,4.90
2007,04,20,00,03,4.90
2007,04,20,00,04,4.90
2007,04,20,00,05,4.80
2007,04,20,00,06,4.80
2007,04,20,00,07,4.80
2007,04,20,00,08,4.80
2007,04,20,00,09,4.80
2007,04,20,00,10,4.80
2007,04,20,00,11,4.80
2007,04,20,00,12,4.80
2007,04,20,00,13,4.80
2007,04,20,00,14,4.80
2007,04,20,00,15,4.80
2007,04,20,00,16,4.80
2007,04,20,00,17,4.80
2007,04,20,00,18,4.70
2007,04,20,00,19,4.70
2007,04,20,00,20,4.70
2007,04,20,00,21,4.70
2007,04,20,00,22,4.70
2007,04,20,00,23,4.70
2007,04,20,00,24,4.70
2007,04,20,00,25,4.60
2007,04,20,00,26,4.60
2007,04,20,00,27,4.60
2007,04,20,00,28,4.60
2007,04,20,00,29,4.60
2007,04,20,00,30,4.60
2007,04,20,00,31,4.60
2007,04,20,00,32,4.60
2007,04,20,00,33,4.60
2007,04,20,00,34,4.60
2007,04,20,00,35,4.60
2007,04,20,00,36,4.60
2007,04,20,00,37,4.60
2007,04,20,00,38,4.50
2007,04,20,00,39,4.50
2007,04,20,00,40,4.40
2007,04,20,00,41,4.40
2007,04,20,00,42,4.30
2007,04,20,00,43,4.30
2007,04,20,00,44,4.30
2007,04,20,00,45,4.20
2007,04,20,00,46,4.20
2007,04,20,00,47,4.20
2007,04,20,00,48,4.20
2007,04,20,00,49,4.10
2007,04,20,00,50,4.10
2007,04,20,00,51,4.10
2007,04,20,00,52,4.00
2007,04,20,00,53,4.00
2007,04,20,00,54,4.00
2007,04,20,00,55,4.00
2007,04,20,00,56,3.90
2007,04,20,00,57,3.90
2007,04,20,00,58,3.90
2007,04,20,00,59,3.90
2007,04,20,01,00,3.80
2007,04,20,01,01,3.80
2007,04,20,01,02,3.80
2007,04,20,01,03,3.80
2007,04,20,01,04,3.80
2007,04,20,01,05,3.70
2007,04,20,01,06,3.70
2007,04,20,01,07,3.70
2007,04,20,01,08,3.70
2007,04,20,01,09,3.70
2007,04,20,01,10,3.70
2007,04,20,01,11,3.60
2007,04,20,01,12,3.60
2007,04,20,01,13,3.60
2007,04,20,01,14,3.50
2007,04,20,01,15,3.50
2007,04,20,01,16,3.50
2007,04,20,01,17,3.50
2007,04,20,01,18,3.50
2007,04,20,01,19,3.40
2007,04,20,01,20,3.40
2007,04,20,01,21,3.40
2007,04,20,01,22,3.40
2007,04,20,01,23,3.30
2007,04,20,01,24,3.30
2007,04,20,01,25,3.30
2007,04,20,01,26,3.30
2007,04,20,01,27,3.30
2007,04,20,01,28,3.20
2007,04,20,01,29,3.20
2007,04,20,01,30,3.20
2007,04,20,01,31,3.20
2007,04,20,01,32,3.20
2007,04,20,01,33,3.20
2007,04,20,01,34,3.20
2007,04,20,01,35,3.20
2007,04,20,01,36,3.20
2007,04,20,01,37,3.20
2007,04,20,01,38,3.20
2007,04,20,01,39,3.20
2007,04,20,01,40,3.20
2007,04,20,01,41,3.20
2007,04,20,01,42,3.20
2007,04,20,01,43,3.10
2007,04,20,01,44,3.20
2007,04,20,01,45,3.20
2007,04,20,01,46,3.20
2007,04,20,01,47,3.20
2007,04,20,01,48,3.30
2007,04,20,01,49,3.30
2007,04,20,01,50,3.40
2007,04,20,01,51,3.40
2007,04,20,01,52,3.50
2007,04,20,01,53,3.50
2007,04,20,01,54,3.60
2007,04,20,01,55,3.60
2007,04,20,01,56,3.60
2007,04,20,01,57,3.60
2007,04,20,01,58,3.60
2007,04,20,01,59,3.60
2007,04,20,02,00,3.60
2007,04,20,02,01,3.60
2007,04,20,02,02,3.60
2007,04,20,02,03,3.60
2007,04,20,02,04,3.60
2007,04,20,02,05,3.60
2007,04,20,02,06,3.60
2007,04,20,02,07,3.60
2007,04,20,02,08,3.50
2007,04,20,02,09,3.50
2007,04,20,02,10,3.50
2007,04,20,02,11,3.50
2007,04,20,02,12,3.40
2007,04,20,02,13,3.40
2007,04,20,02,14,3.40
2007,04,20,02,15,3.30
2007,04,20,02,16,3.30
2007,04,20,02,17,3.30
2007,04,20,02,18,3.30
2007,04,20,02,19,3.30
2007,04,20,02,20,3.30
2007,04,20,02,21,3.30
2007,04,20,02,22,3.30
2007,04,20,02,23,3.30
2007,04,20,02,24,3.30
2007,04,20,02,25,3.20
2007,04,20,02,26,3.20
2007,04,20,02,27,3.20
2007,04,20,02,28,3.20
2007,04,20,02,29,3.20
2007,04,20,02,30,3.20
2007,04,20,02,31,3.20
2007,04,20,02,32,3.20
2007,04,20,02,33,3.10
2007,04,20,02,34,3.10
2007,04,20,02,35,3.10
2007,04,20,02,36,3.10
2007,04,20,02,37,3.10
2007,04,20,02,38,3.10
2007,04,20,02,39,3.10
2007,04,20,02,40,3.10
2007,04,20,02,41,3.10
2007,04,20,02,42,3.00
2007,04,20,02,43,3.00
2007,04,20,02,44,3.00
2007,04,20,02,45,2.90
2007,04,20,02,46,2.90
2007,04,20,02,47,2.80
2007,04,20,02,48,2.80
2007,04,20,02,49,2.80
2007,04,20,02,50,2.80
2007,04,20,02,51,2.80
2007,04,20,02,52,2.80
2007,04,20,02,53,2.80
2007,04,20,02,54,2.80
2007,04,20,02,55,2.80
2007,04,20,02,56,2.80
2007,04,20,02,57,2.80
2007,04,20,02,58,2.70
2007,04,20,02,59,2.70
2007,04,20,03,00,2.70
2007,04,20,03,01,2.70
2007,04,20,03,02,2.70
2007,04,20,03,03,2.70
2007,04,20,03,04,2.70
2007,04,20,03,05,2.70
2007,04,20,03,06,2.70
2007,04,20,03,07,2.70
2007,04,20,03,08,2.70
2007,04,20,03,09,2.70
2007,04,20,03,10,2.70
2007,04,20,03,11,2.70
2007,04,20,03,12,2.70
2007,04,20,03,13,2.60
2007,04,20,03,14,2.60
2007,04,20,03,15,2.60
2007,04,20,03,16,2.70
2007,04,20,03,17,2.70
2007,04,20,03,18,2.60
2007,04,20,03,19,2.60
2007,04,20,03,20,2.50
2007,04,20,03,21,2.50
2007,04,20,03,22,2.40
2007,04,20,03,23,2.40
2007,04,20,03,24,2.40
2007,04,20,03,25,2.30
2007,04,20,03,26,2.30
2007,04,20,03,27,2.30
2007,04,20,03,28,2.30
2007,04,20,03,29,2.30
2007,04,20,03,30,2.20
2007,04,20,03,31,2.20
2007,04,20,03,32,2.20
2007,04,20,03,33,2.10
2007,04,20,03,34,2.10
2007,04,20,03,35,2.10
2007,04,20,03,36,2.10
2007,04,20,03,37,2.10
2007,04,20,03,38,2.10
2007,04,20,03,39,2.00
2007,04,20,03,40,2.00
2007,04,20,03,41,1.90
2007,04,20,03,42,1.90
2007,04,20,03,43,1.90
2007,04,20,03,44,1.80
2007,04,20,03,45,1.80
2007,04,20,03,46,1.80
2007,04,20,03,47,1.80
2007,04,20,03,48,1.70
2007,04,20,03,49,1.70
2007,04,20,03,50,1.70
2007,04,20,03,51,1.70
2007,04,20,03,52,1.70
2007,04,20,03,53,1.70
2007,04,20,03,54,1.70
2007,04,20,03,55,1.70
2007,04,20,03,56,1.70
2007,04,20,03,57,1.70
2007,04,20,03,58,1.70
2007,04,20,03,59,1.70
2007,04,20,04,00,1.70
2007,04,20,04,01,1.70
2007,04,20,04,02,1.70
2007,04,20,04,03,1.70
2007,04,20,04,04,1.70
2007,04,20,04,05,1.70
2007,04,20,04,06,1.70
2007,04,20,04,07,1.60
2007,04,20,04,08,1.60
2007,04,20,04,09,1.60
2007,04,20,04,10,1.60
2007,04,20,04,11,1.60
2007,04,20,04,12,1.60
2007,04,20,04,13,1.60
2007,04,20,04,14,1.60
2007,04,20,04,15,1.60
2007,04,20,04,16,1.60
2007,04,20,04,17,1.60
2007,04,20,04,18,1.60
2007,04,20,04,19,1.70
2007,04,20,04,20,1.70
2007,04,20,04,21,1.70
2007,04,20,04,22,1.70
2007,04,20,04,23,1.70
2007,04,20,04,24,1.70
2007,04,20,04,25,1.70
2007,04,20,04,26,1.70
2007,04,20,04,27,1.70
2007,04,20,04,28,1.70
2007,04,20,04,29,1.70
2007,04,20,04,30,1.60
2007,04,20,04,31,1.60
2007,04,20,04,32,1.60
2007,04,20,04,33,1.60
2007,04,20,04,34,1.50
2007,04,20,04,35,1.50
2007,04,20,04,36,1.50
2007,04,20,04,37,1.50
2007,04,20,04,38,1.50
2007,04,20,04,39,1.40
2007,04,20,04,40,1.50
2007,04,20,04,41,1.50
2007,04,20,04,42,1.40
2007,04,20,04,43,1.40
2007,04,20,04,44,1.40
2007,04,20,04,45,1.40
2007,04,20,04,46,1.40
2007,04,20,04,47,1.40
2007,04,20,04,48,1.40
2007,04,20,04,49,1.40
2007,04,20,04,50,1.30
2007,04,20,04,51,1.30
2007,04,20,04,52,1.30
2007,04,20,04,53,1.30
2007,04,20,04,54,1.30
2007,04,20,04,55,1.30
2007,04,20,04,56,1.30
2007,04,20,04,57,1.30
2007,04,20,04,58,1.30
2007,04,20,04,59,1.30
2007,04,20,05,00,1.30
2007,04,20,05,01,1.30
2007,04,20,05,02,1.30
2007,04,20,05,03,1.30
2007,04,20,05,04,1.30
2007,04,20,05,05,1.30
2007,04,20,05,06,1.30
2007,04,20,05,07,1.30
2007,04,20,05,08,1.30
2007,04,20,05,09,1.30
2007,04,20,05,10,1.30
2007,04,20,05,11,1.30
2007,04,20,05,12,1.30
2007,04,20,05,13,1.30
2007,04,20,05,14,1.30
2007,04,20,05,15,1.30
2007,04,20,05,16,1.30
2007,04,20,05,17,1.30
2007,04,20,05,18,1.30
2007,04,20,05,19,1.30
2007,04,20,05,20,1.30
2007,04,20,05,21,1.20
2007,04,20,05,22,1.20
2007,04,20,05,23,1.20
2007,04,20,05,24,1.20
2007,04,20,05,25,1.20
2007,04,20,05,26,1.10
2007,04,20,05,27,1.10
2007,04,20,05,28,1.10
2007,04,20,05,29,1.00
2007,04,20,05,30,1.00
2007,04,20,05,31,1.00
2007,04,20,05,32,0.90
2007,04,20,05,33,0.90
2007,04,20,05,34,1.00
2007,04,20,05,35,1.00
2007,04,20,05,36,1.00
2007,04,20,05,37,1.00
2007,04,20,05,38,0.90
2007,04,20,05,39,0.90
2007,04,20,05,40,0.90
2007,04,20,05,41,1.00
2007,04,20,05,42,1.00
2007,04,20,05,43,1.00
2007,04,20,05,44,1.10
2007,04,20,05,45,1.10
2007,04,20,05,46,1.10
2007,04,20,05,47,1.10
2007,04,20,05,48,1.00
2007,04,20,05,49,1.00
2007,04,20,05,50,1.00
2007,04,20,05,51,1.00
2007,04,20,05,52,0.90
2007,04,20,05,53,0.90
2007,04,20,05,54,0.90
2007,04,20,05,55,0.90
2007,04,20,05,56,0.90
2007,04,20,05,57,0.90
2007,04,20,05,58,0.90
2007,04,20,05,59,0.90
2007,04,20,06,00,0.90
2007,04,20,06,01,0.90
2007,04,20,06,02,1.00
2007,04,20,06,03,1.00
2007,04,20,06,04,1.10
2007,04,20,06,05,1.10
2007,04,20,06,06,1.20
2007,04,20,06,07,1.20
2007,04,20,06,08,1.10
2007,04,20,06,09,1.10
2007,04,20,06,10,1.10
2007,04,20,06,11,1.10
2007,04,20,06,12,1.10
2007,04,20,06,13,1.10
2007,04,20,06,14,1.10
2007,04,20,06,15,1.10
2007,04,20,06,16,1.00
2007,04,20,06,17,1.00
2007,04,20,06,18,1.00
2007,04,20,06,19,0.90
2007,04,20,06,20,0.90
2007,04,20,06,21,0.90
2007,04,20,06,22,0.90
2007,04,20,06,23,0.90
2007,04,20,06,24,0.90
2007,04,20,06,25,0.90
2007,04,20,06,26,0.80
2007,04,20,06,27,0.80
2007,04,20,06,28,0.80
2007,04,20,06,29,0.80
2007,04,20,06,30,0.80
2007,04,20,06,31,0.80
2007,04,20,06,32,0.80
2007,04,20,06,33,0.80
2007,04,20,06,34,0.80
2007,04,20,06,35,0.80
2007,04,20,06,36,0.90
2007,04,20,06,37,0.90
2007,04,20,06,38,0.90
2007,04,20,06,39,0.90
2007,04,20,06,40,0.90
2007,04,20,06,41,1.00
2007,04,20,06,42,1.00
2007,04,20,06,43,1.00
2007,04,20,06,44,1.00
2007,04,20,06,45,1.00
2007,04,20,06,46,1.10
2007,04,20,06,47,1.10
2007,04,20,06,48,1.10
2007,04,20,06,49,1.10
2007,04,20,06,50,1.10
2007,04,20,06,51,1.10
2007,04,20,06,52,1.10
2007,04,20,06,53,1.20
2007,04,20,06,54,1.20
2007,04,20,06,55,1.30
2007,04,20,06,56,1.30
2007,04,20,06,57,1.30
2007,04,20,06,58,1.30
2007,04,20,06,59,1.30
2007,04,20,07,00,1.30
2007,04,20,07,01,1.40
2007,04,20,07,02,1.50
2007,04,20,07,03,1.50
2007,04,20,07,04,1.60
2007,04,20,07,05,1.60
2007,04,20,07,06,1.70
2007,04,20,07,07,1.70
2007,04,20,07,08,1.70
2007,04,20,07,09,1.80
2007,04,20,07,10,1.80
2007,04,20,07,11,1.80
2007,04,20,07,12,1.90
2007,04,20,07,13,1.90
2007,04,20,07,14,2.00
2007,04,20,07,15,2.00
2007,04,20,07,16,2.10
2007,04,20,07,17,2.20
2007,04,20,07,18,2.20
2007,04,20,07,19,2.30
2007,04,20,07,20,2.30
2007,04,20,07,21,2.50
2007,04,20,07,22,2.50
2007,04,20,07,23,2.60
2007,04,20,07,24,2.70
2007,04,20,07,25,2.80
2007,04,20,07,26,2.90
2007,04,20,07,27,2.90
2007,04,20,07,28,3.00
2007,04,20,07,29,3.00
2007,04,20,07,30,3.10
2007,04,20,07,31,3.20
2007,04,20,07,32,3.30
2007,04,20,07,33,3.30
2007,04,20,07,34,3.40
2007,04,20,07,35,3.50
2007,04,20,07,36,3.60
2007,04,20,07,37,3.70
2007,04,20,07,38,3.90
2007,04,20,07,39,3.90
2007,04,20,07,40,4.00
2007,04,20,07,41,4.10
2007,04,20,07,42,4.20
2007,04,20,07,43,4.30
2007,04,20,07,44,4.40
2007,04,20,07,45,4.50
2007,04,20,07,46,4.50
2007,04,20,07,47,4.50
2007,04,20,07,48,4.50
2007,04,20,07,49,4.50
2007,04,20,07,50,4.50
2007,04,20,07,51,4.50
2007,04,20,07,52,4.50
2007,04,20,07,53,4.60
2007,04,20,07,54,4.60
2007,04,20,07,55,4.70
2007,04,20,07,56,4.70
2007,04,20,07,57,4.80
2007,04,20,07,58,4.80
2007,04,20,07,59,4.80
2007,04,20,08,00,4.90
2007,04,20,08,01,5.00
2007,04,20,08,02,5.10
2007,04,20,08,03,5.10
2007,04,20,08,04,5.20
2007,04,20,08,05,5.20
2007,04,20,08,06,5.30
2007,04,20,08,07,5.30
2007,04,20,08,08,5.30
2007,04,20,08,09,5.40
2007,04,20,08,10,5.40
2007,04,20,08,11,5.50
2007,04,20,08,12,5.60
2007,04,20,08,13,5.60
2007,04,20,08,14,5.70
2007,04,20,08,15,5.80
2007,04,20,08,16,5.80
2007,04,20,08,17,5.90
2007,04,20,08,18,6.00
2007,04,20,08,19,6.10
2007,04,20,08,20,6.20
2007,04,20,08,21,6.30
2007,04,20,08,22,6.40
2007,04,20,08,23,6.50
2007,04,20,08,24,6.60
2007,04,20,08,25,6.60
2007,04,20,08,26,6.70
2007,04,20,08,27,6.70
2007,04,20,08,28,6.70
2007,04,20,08,29,6.80
2007,04,20,08,30,6.80
2007,04,20,08,31,6.80
2007,04,20,08,32,6.90
2007,04,20,08,33,7.00
2007,04,20,08,34,7.00
2007,04,20,08,35,7.10
2007,04,20,08,36,7.20
2007,04,20,08,37,7.20
2007,04,20,08,38,7.30
2007,04,20,08,39,7.30
2007,04,20,08,40,7.40
2007,04,20,08,41,7.50
2007,04,20,08,42,7.50
2007,04,20,08,43,7.60
2007,04,20,08,44,7.60
2007,04,20,08,45,7.70
2007,04,20,08,46,7.80
2007,04,20,08,47,7.90
2007,04,20,08,48,7.90
2007,04,20,08,49,8.00
2007,04,20,08,50,8.00
2007,04,20,08,51,7.90
2007,04,20,08,52,7.80
2007,04,20,08,53,7.70
2007,04,20,08,54,7.60
2007,04,20,08,55,7.60
2007,04,20,08,56,7.60
2007,04,20,08,57,7.60
2007,04,20,08,58,7.70
2007,04,20,08,59,7.70
2007,04,20,09,00,7.70
2007,04,20,09,01,7.60
2007,04,20,09,02,7.60
2007,04,20,09,03,7.60
2007,04,20,09,04,7.60
2007,04,20,09,05,7.60
2007,04,20,09,06,7.60
2007,04,20,09,07,7.60
2007,04,20,09,08,7.60
2007,04,20,09,09,7.60
2007,04,20,09,10,7.60
2007,04,20,09,11,7.60
2007,04,20,09,12,7.60
2007,04,20,09,13,7.60
2007,04,20,09,14,7.70
2007,04,20,09,15,7.80
2007,04,20,09,16,7.80
2007,04,20,09,17,7.90
2007,04,20,09,18,8.00
2007,04,20,09,19,8.00
2007,04,20,09,20,8.10
2007,04,20,09,21,8.10
2007,04,20,09,22,8.10
2007,04,20,09,23,8.00
2007,04,20,09,24,8.00
2007,04,20,09,25,8.10
2007,04,20,09,26,8.20
2007,04,20,09,27,8.20
2007,04,20,09,28,8.20
2007,04,20,09,29,8.30
2007,04,20,09,30,8.30
2007,04,20,09,31,8.40
2007,04,20,09,32,8.30
2007,04,20,09,33,8.40
2007,04,20,09,34,8.40
2007,04,20,09,35,8.40
2007,04,20,09,36,8.40
2007,04,20,09,37,8.40
2007,04,20,09,38,8.40
2007,04,20,09,39,8.40
2007,04,20,09,40,8.40
2007,04,20,09,41,8.50
2007,04,20,09,42,8.50
2007,04,20,09,43,8.60
2007,04,20,09,44,8.60
2007,04,20,09,45,8.70
2007,04,20,09,46,8.70
2007,04,20,09,47,8.70
2007,04,20,09,48,8.60
2007,04,20,09,49,8.60
2007,04,20,09,50,8.60
2007,04,20,09,51,8.50
2007,04,20,09,52,8.40
2007,04,20,09,53,8.30
2007,04,20,09,54,8.30
2007,04,20,09,55,8.30
2007,04,20,09,56,8.40
2007,04,20,09,57,8.40
2007,04,20,09,58,8.40
2007,04,20,09,59,8.40
2007,04,20,10,00,8.40
2007,04,20,10,01,8.40
2007,04,20,10,02,8.30
2007,04,20,10,03,8.30
2007,04,20,10,04,8.40
2007,04,20,10,05,8.40
2007,04,20,10,06,8.50
2007,04,20,10,07,8.60
2007,04,20,10,08,8.70
2007,04,20,10,09,8.80
2007,04,20,10,10,8.80
2007,04,20,10,11,8.80
2007,04,20,10,12,8.70
2007,04,20,10,13,8.60
2007,04,20,10,14,8.60
2007,04,20,10,15,8.60
2007,04,20,10,16,8.60
2007,04,20,10,17,8.50
2007,04,20,10,18,8.40
2007,04,20,10,19,8.40
2007,04,20,10,20,8.40
2007,04,20,10,21,8.40
2007,04,20,10,22,8.50
2007,04,20,10,23,8.50
2007,04,20,10,24,8.50
2007,04,20,10,25,8.50
2007,04,20,10,26,8.60
2007,04,20,10,27,8.60
2007,04,20,10,28,8.80
2007,04,20,10,29,8.80
2007,04,20,10,30,8.80
2007,04,20,10,31,8.80
2007,04,20,10,32,8.80
2007,04,20,10,33,8.80
2007,04,20,10,34,8.80
2007,04,20,10,35,8.80
2007,04,20,10,36,8.80
2007,04,20,10,37,8.90
2007,04,20,10,38,9.00
2007,04,20,10,39,9.00
2007,04,20,10,40,9.00
2007,04,20,10,41,9.10
2007,04,20,10,42,9.00
2007,04,20,10,43,9.00
2007,04,20,10,44,9.00
2007,04,20,10,45,9.00
2007,04,20,10,46,9.00
2007,04,20,10,47,9.00
2007,04,20,10,48,9.00
2007,04,20,10,49,9.00
2007,04,20,10,50,9.00
2007,04,20,10,51,9.10
2007,04,20,10,52,9.20
2007,04,20,10,53,9.10
2007,04,20,10,54,9.20
2007,04,20,10,55,9.30
2007,04,20,10,56,9.30
2007,04,20,10,57,9.30
2007,04,20,10,58,9.30
2007,04,20,10,59,9.30
2007,04,20,11,00,9.30
2007,04,20,11,01,9.30
2007,04,20,11,02,9.30
2007,04,20,11,03,9.40
2007,04,20,11,04,9.40
2007,04,20,11,05,9.50
2007,04,20,11,06,9.60
2007,04,20,11,07,9.60
2007,04,20,11,08,9.60
2007,04,20,11,09,9.60
2007,04,20,11,10,9.70
2007,04,20,11,11,9.70
2007,04,20,11,12,9.80
2007,04,20,11,13,9.80
2007,04,20,11,14,9.90
2007,04,20,11,15,10.00
2007,04,20,11,16,10.00
2007,04,20,11,17,10.10
2007,04,20,11,18,10.00
2007,04,20,11,19,10.00
2007,04,20,11,20,10.10
2007,04,20,11,21,10.10
2007,04,20,11,22,10.00
2007,04,20,11,23,9.80
2007,04,20,11,24,9.80
2007,04,20,11,25,9.80
2007,04,20,11,26,9.80
2007,04,20,11,27,9.80
2007,04,20,11,28,9.80
2007,04,20,11,29,9.90
2007,04,20,11,30,10.10
2007,04,20,11,31,10.20
2007,04,20,11,32,10.30
2007,04,20,11,33,10.40
2007,04,20,11,34,10.40
2007,04,20,11,35,10.30
2007,04,20,11,36,10.30
2007,04,20,11,37,10.20
2007,04,20,11,38,10.20
2007,04,20,11,39,10.20
2007,04,20,11,40,10.20
2007,04,20,11,41,10.30
2007,04,20,11,42,10.40
2007,04,20,11,43,10.40
2007,04,20,11,44,10.40
2007,04,20,11,45,10.50
2007,04,20,11,46,10.60
2007,04,20,11,47,10.70
2007,04,20,11,48,10.80
2007,04,20,11,49,10.90
2007,04,20,11,50,11.10
2007,04,20,11,51,11.20
2007,04,20,11,52,11.20
2007,04,20,11,53,11.30
2007,04,20,11,54,11.30
2007,04,20,11,55,11.30
2007,04,20,11,56,11.40
2007,04,20,11,57,11.40
2007,04,20,11,58,11.50
2007,04,20,11,59,11.50
2007,04,20,12,00,11.60
2007,04,20,12,01,11.50
2007,04,20,12,02,11.50
2007,04,20,12,03,11.50
2007,04,20,12,04,11.60
2007,04,20,12,05,11.70
2007,04,20,12,06,11.60
2007,04,20,12,07,11.60
2007,04,20,12,08,11.60
2007,04,20,12,09,11.60
2007,04,20,12,10,11.60
2007,04,20,12,11,11.60
2007,04,20,12,12,11.50
2007,04,20,12,13,11.40
2007,04,20,12,14,11.30
2007,04,20,12,15,11.30
2007,04,20,12,16,11.30
2007,04,20,12,17,11.20
2007,04,20,12,18,11.20
2007,04,20,12,19,11.20
2007,04,20,12,20,11.20
2007,04,20,12,21,11.20
2007,04,20,12,22,11.20
2007,04,20,12,23,11.30
2007,04,20,12,24,11.40
2007,04,20,12,25,11.30
2007,04,20,12,26,11.30
2007,04,20,12,27,11.40
2007,04,20,12,28,11.40
2007,04,20,12,29,11.50
2007,04,20,12,30,11.40
2007,04,20,12,31,11.40
2007,04,20,12,32,11.50
2007,04,20,12,33,11.60
2007,04,20,12,34,11.70
2007,04,20,12,35,11.70
2007,04,20,12,36,11.80
2007,04,20,12,37,11.80
2007,04,20,12,38,11.70
2007,04,20,12,39,11.70
2007,04,20,12,40,11.80
2007,04,20,12,41,11.70
2007,04,20,12,42,11.70
2007,04,20,12,43,11.80
2007,04,20,12,44,11.90
2007,04,20,12,45,12.00
2007,04,20,12,46,12.20
2007,04,20,12,47,12.20
2007,04,20,12,48,12.20
2007,04,20,12,49,12.20
2007,04,20,12,50,12.20
2007,04,20,12,51,12.20
2007,04,20,12,52,12.40
2007,04,20,12,53,12.40
2007,04,20,12,54,12.40
2007,04,20,12,55,12.50
2007,04,20,12,56,12.50
2007,04,20,12,57,12.40
2007,04,20,12,58,12.30
2007,04,20,12,59,12.30
2007,04,20,13,00,12.20
2007,04,20,13,01,12.20
2007,04,20,13,02,12.20
2007,04,20,13,03,12.10
2007,04,20,13,04,12.10
2007,04,20,13,05,12.00
2007,04,20,13,06,11.80
2007,04,20,13,07,11.80
2007,04,20,13,08,11.80
2007,04,20,13,09,11.80
2007,04,20,13,10,11.80
2007,04,20,13,11,11.70
2007,04,20,13,12,11.70
2007,04,20,13,13,11.80
2007,04,20,13,14,11.90
2007,04,20,13,15,11.90
2007,04,20,13,16,11.90
2007,04,20,13,17,11.90
2007,04,20,13,18,11.90
2007,04,20,13,19,11.90
2007,04,20,13,20,11.80
2007,04,20,13,21,11.80
2007,04,20,13,22,11.80
2007,04,20,13,23,11.90
2007,04,20,13,24,12.00
2007,04,20,13,25,12.20
2007,04,20,13,26,12.30
2007,04,20,13,27,12.20
2007,04,20,13,28,12.10
2007,04,20,13,29,12.10
2007,04,20,13,30,12.10
2007,04,20,13,31,12.10
2007,04,20,13,32,12.10
2007,04,20,13,33,12.10
2007,04,20,13,34,12.10
2007,04,20,13,35,12.10
2007,04,20,13,36,12.10
2007,04,20,13,37,12.20
2007,04,20,13,38,12.30
2007,04,20,13,39,12.40
2007,04,20,13,40,12.50
2007,04,20,13,41,12.40
2007,04,20,13,42,12.30
2007,04,20,13,43,12.40
2007,04,20,13,44,12.50
2007,04,20,13,45,12.50
2007,04,20,13,46,12.50
2007,04,20,13,47,12.50
2007,04,20,13,48,12.40
2007,04,20,13,49,12.40
2007,04,20,13,50,12.30
2007,04,20,13,51,12.30
2007,04,20,13,52,12.30
2007,04,20,13,53,12.40
2007,04,20,13,54,12.50
2007,04,20,13,55,12.60
2007,04,20,13,56,12.60
2007,04,20,13,57,12.50
2007,04,20,13,58,12.50
2007,04,20,13,59,12.50
2007,04,20,14,00,12.50
2007,04,20,14,01,12.50
2007,04,20,14,02,12.50
2007,04,20,14,03,12.60
2007,04,20,14,04,12.50
2007,04,20,14,05,12.40
2007,04,20,14,06,12.40
2007,04,20,14,07,12.30
2007,04,20,14,08,12.30
2007,04,20,14,09,12.20
2007,04,20,14,10,12.20
2007,04,20,14,11,12.20
2007,04,20,14,12,12.30
2007,04,20,14,13,12.20
2007,04,20,14,14,12.20
2007,04,20,14,15,12.10
2007,04,20,14,16,12.10
2007,04,20,14,17,12.20
2007,04,20,14,18,12.20
2007,04,20,14,19,12.20
2007,04,20,14,20,12.30
2007,04,20,14,21,12.30
2007,04,20,14,22,12.30
2007,04,20,14,23,12.40
2007,04,20,14,24,12.40
2007,04,20,14,25,12.50
2007,04,20,14,26,12.60
2007,04,20,14,27,12.60
2007,04,20,14,28,12.70
2007,04,20,14,29,12.70
2007,04,20,14,30,12.50
2007,04,20,14,31,12.40
2007,04,20,14,32,12.30
2007,04,20,14,33,12.40
2007,04,20,14,34,12.60
2007,04,20,14,35,12.70
2007,04,20,14,36,12.80
2007,04,20,14,37,12.80
2007,04,20,14,38,12.70
2007,04,20,14,39,12.70
2007,04,20,14,40,12.70
2007,04,20,14,41,12.70
2007,04,20,14,42,12.70
2007,04,20,14,43,12.70
2007,04,20,14,44,12.70
2007,04,20,14,45,12.80
2007,04,20,14,46,12.70
2007,04,20,14,47,12.70
2007,04,20,14,48,12.60
2007,04,20,14,49,12.50
2007,04,20,14,50,12.40
2007,04,20,14,51,12.30
2007,04,20,14,52,12.30
2007,04,20,14,53,12.30
2007,04,20,14,54,12.30
2007,04,20,14,55,12.40
2007,04,20,14,56,12.50
2007,04,20,14,57,12.60
2007,04,20,14,58,12.70
2007,04,20,14,59,12.70
2007,04,20,15,00,12.80
2007,04,20,15,01,12.80
2007,04,20,15,02,12.80
2007,04,20,15,03,12.80
2007,04,20,15,04,12.80
2007,04,20,15,05,12.70
2007,04,20,15,06,12.60
2007,04,20,15,07,12.60
2007,04,20,15,08,12.60
2007,04,20,15,09,12.70
2007,04,20,15,10,12.80
2007,04,20,15,11,12.80
2007,04,20,15,12,12.70
2007,04,20,15,13,12.70
2007,04,20,15,14,12.90
2007,04,20,15,15,13.00
2007,04,20,15,16,13.10
2007,04,20,15,17,13.10
2007,04,20,15,18,13.00
2007,04,20,15,19,13.00
2007,04,20,15,20,12.90
2007,04,20,15,21,12.80
2007,04,20,15,22,12.70
2007,04,20,15,23,12.70
2007,04,20,15,24,12.60
2007,04,20,15,25,12.60
2007,04,20,15,26,12.60
2007,04,20,15,27,12.60
2007,04,20,15,28,12.70
2007,04,20,15,29,12.80
2007,04,20,15,30,12.80
2007,04,20,15,31,12.80
2007,04,20,15,32,12.80
2007,04,20,15,33,12.80
2007,04,20,15,34,12.70
2007,04,20,15,35,12.70
2007,04,20,15,36,12.70
2007,04,20,15,37,12.70
2007,04,20,15,38,12.70
2007,04,20,15,39,12.80
2007,04,20,15,40,12.80
2007,04,20,15,41,12.80
2007,04,20,15,42,12.80
2007,04,20,15,43,12.90
2007,04,20,15,44,12.90
2007,04,20,15,45,12.90
2007,04,20,15,46,13.00
2007,04,20,15,47,13.10
2007,04,20,15,48,13.00
2007,04,20,15,49,13.00
2007,04,20,15,50,13.00
2007,04,20,15,51,13.00
2007,04,20,15,52,12.90
2007,04,20,15,53,12.90
2007,04,20,15,54,12.90
2007,04,20,15,55,12.90
2007,04,20,15,56,12.90
2007,04,20,15,57,12.90
2007,04,20,15,58,12.80
2007,04,20,15,59,12.70
2007,04,20,16,00,12.70
2007,04,20,16,01,12.70
2007,04,20,16,02,12.60
2007,04,20,16,03,12.70
2007,04,20,16,04,12.60
2007,04,20,16,05,12.60
2007,04,20,16,06,12.60
2007,04,20,16,07,12.50
2007,04,20,16,08,12.30
2007,04,20,16,09,12.30
2007,04,20,16,10,12.30
2007,04,20,16,11,12.30
2007,04,20,16,12,12.20
2007,04,20,16,13,12.20
2007,04,20,16,14,12.20
2007,04,20,16,15,12.10
2007,04,20,16,16,12.20
2007,04,20,16,17,12.30
2007,04,20,16,18,12.20
2007,04,20,16,19,12.10
2007,04,20,16,20,12.00
2007,04,20,16,21,11.90
2007,04,20,16,22,11.90
2007,04,20,16,23,11.90
2007,04,20,16,24,11.80
2007,04,20,16,25,11.70
2007,04,20,16,26,11.70
2007,04,20,16,27,11.70
2007,04,20,16,28,11.70
2007,04,20,16,29,11.70
2007,04,20,16,30,11.70
2007,04,20,16,31,11.70
2007,04,20,16,32,11.80
2007,04,20,16,33,11.80
2007,04,20,16,34,11.80
2007,04,20,16,35,11.80
2007,04,20,16,36,11.80
2007,04,20,16,37,11.80
2007,04,20,16,38,11.80
2007,04,20,16,39,11.80
2007,04,20,16,40,11.80
2007,04,20,16,41,11.80
2007,04,20,16,42,11.80
2007,04,20,16,43,11.80
2007,04,20,16,44,11.80
2007,04,20,16,45,11.80
2007,04,20,16,46,11.90
2007,04,20,16,47,11.90
2007,04,20,16,48,12.00
2007,04,20,16,49,12.10
2007,04,20,16,50,12.20
2007,04,20,16,51,12.30
2007,04,20,16,52,12.50
2007,04,20,16,53,12.70
2007,04,20,16,54,12.70
2007,04,20,16,55,12.70
2007,04,20,16,56,12.60
2007,04,20,16,57,12.60
2007,04,20,16,58,12.50
2007,04,20,16,59,12.40
2007,04,20,17,00,12.30
2007,04,20,17,01,12.30
2007,04,20,17,02,12.30
2007,04,20,17,03,12.40
2007,04,20,17,04,12.30
2007,04,20,17,05,12.20
2007,04,20,17,06,12.20
2007,04,20,17,07,12.20
2007,04,20,17,08,12.20
2007,04,20,17,09,12.20
2007,04,20,17,10,12.20
2007,04,20,17,11,12.20
2007,04,20,17,12,12.20
2007,04,20,17,13,12.20
2007,04,20,17,14,12.20
2007,04,20,17,15,12.20
2007,04,20,17,16,12.10
2007,04,20,17,17,12.10
2007,04,20,17,18,12.00
2007,04,20,17,19,12.10
2007,04,20,17,20,12.10
2007,04,20,17,21,12.20
2007,04,20,17,22,12.20
2007,04,20,17,23,12.30
2007,04,20,17,24,12.20
2007,04,20,17,25,12.30
2007,04,20,17,26,12.30
2007,04,20,17,27,12.30
2007,04,20,17,28,12.20
2007,04,20,17,29,12.20
2007,04,20,17,30,12.20
2007,04,20,17,31,12.20
2007,04,20,17,32,12.10
2007,04,20,17,33,12.00
2007,04,20,17,34,12.00
2007,04,20,17,35,12.00
2007,04,20,17,36,12.00
2007,04,20,17,37,12.10
2007,04,20,17,38,12.20
2007,04,20,17,39,12.30
2007,04,20,17,40,12.20
2007,04,20,17,41,12.20
2007,04,20,17,42,12.10
2007,04,20,17,43,12.10
2007,04,20,17,44,12.10
2007,04,20,17,45,12.00
2007,04,20,17,46,12.00
2007,04,20,17,47,11.90
2007,04,20,17,48,11.90
2007,04,20,17,49,11.90